Regional Weather Roundup
Issued by NWS Charleston, SC

Current Version | Previous Version | Text Only | Print | Product List | Glossary Off
Versions: 1 2 3 4 5 6 7 8 9 10 11 12 13 14 15 16 17 18 19 20 21 22 23 24 25 26 27 28 29 30 31 32 33 34 35 36 37 38 39 40 41 42 43 44 45 46 47 48 49 50

000
ASUS42 KCHS 200010
RWRCHS

REGIONAL WEATHER ROUNDUP
NATIONAL WEATHER SERVICE CHARLESTON SC
800 PM EDT TUE AUG 19 2014

NOTE: "FAIR" INDICATES FEW OR NO CLOUDS BELOW 12,000 FEET WITH NO
SIGNIFICANT WEATHER AND/OR OBSTRUCTIONS TO VISIBILITY.

NOT ALL STATIONS ARE QUALITY CONTROLLED BY THE NATIONAL
WEATHER SERVICE. USE DATA WITH CAUTION...ESPECIALLY
DEWPOINT OBSERVATIONS.

SCZ027-030-031-034>040-042>050-200100-
...SOUTH CAROLINA...

CITY           SKY/WX    TMP DP  RH WIND       PRES   REMARKS
N CHARLESTON   PTCLDY    83  74  74 W10       29.86F
6HR MIN TEMP:  83; 6HR MAX TEMP:  94;

WATERFRONT PRK   N/A     82 N/A N/A SW6         N/A
FORT JOHNSON   NOT AVBL
MOUNT PLEASANT FAIR      84  75  74 W10       29.86S HX  92
JOHNS ISLAND   CLEAR     81  75  83 CALM      29.87S
PINOPOLIS        N/A     86  75  70 SW9       29.76R HX  95
MONCKS CORNER  NOT AVBL
SUMMERVILLE    FAIR      81  77  89 SW3       29.87
BEAUFORT MCAS  MOCLDY    82  74  76 NW9       29.88F
6HR MIN TEMP:  81; 6HR MAX TEMP:  93; 6HR PCP: TRACE;

BEAUFORT ARPT  FAIR      82  73  74 SW7       29.87F
HILTON HEAD IS CLEAR     82  73  74 SW8       29.89F
GEORGETOWN     NOT AVBL
WALTERBORO     NOT AVBL
ORANGEBURG     MOCLDY    83  73  72 W12       29.86S
6HR MIN TEMP:  83; 6HR MAX TEMP:  91;

BARNWELL       CLOUDY    81  72  74 W9        29.88F
AIKEN          FAIR      82  75  78 SW8       29.91S
MANNING        FAIR      82  75  78 CALM      29.84S
KINGSTREE      NOT AVBL
COLUMBIA       MOCLDY    88  69  53 VRB6      29.84S HX  92
6HR MIN TEMP:  82; 6HR MAX TEMP:  92;

SUMTER         MOCLDY    85  73  68 NW9       29.84R HX  92
6HR MIN TEMP:  81; 6HR MAX TEMP:  89; 6HR PCP: TRACE;

FLORENCE       PTCLDY    81  73  76 W3        29.85R
6HR MIN TEMP:  75; 6HR MAX TEMP:  90; 6HR PCP:  0.15;

MYRTLE BEACH   NOT AVBL
N MYRTLE BEACH CLOUDY    78  75  90 W3        29.85R
6HR MIN TEMP:  76; 6HR MAX TEMP:  91; 6HR PCP:  0.53;


$$

GAZ063-065-086>088-099>101-113>116-118-119-134-136>141-150-200100-
...GEORGIA...

CITY           SKY/WX    TMP DP  RH WIND       PRES   REMARKS
SAVANNAH ARPT  CLOUDY    80  74  81 W3        29.89F
6HR MIN TEMP:  74; 6HR MAX TEMP:  84;

HUNTER AAF     CLOUDY    80  74  79 SW6       29.87F
6HR MIN TEMP:  73; 6HR MAX TEMP:  83; 6HR PCP:  0.01;

FORT STEWART   CLOUDY    81  73  77 SW10      29.89F
6HR MIN TEMP:  74; 6HR MAX TEMP:  85; 6HR PCP:  0.01;

STATESBORO     NOT AVBL
SYLVANIA       CLOUDY    78  75  91 CALM      29.89S
CLAXTON        FAIR      81  73  78 W6        29.90R
THOMSON        MOCLDY    82  76  79 CALM      29.93S HX  90
AUGUSTA-BUSH   CLOUDY    81  70  69 SW14      29.87S
6HR MIN TEMP:  81; 6HR MAX TEMP:  93; 6HR PCP: TRACE;

AUGUSTA-DANIEL CLOUDY    83  72  69 SW9G17    29.89S
SWAINSBORO     FAIR      77  77 100 NW6       29.91S
VIDALIA          N/A     77  72  83 SW8       29.91S
ALMA           CLOUDY    72  69  90 W3        29.92F
6HR MIN TEMP:  72; 6HR MAX TEMP:  87; 6HR PCP:  0.18;

WAYCROSS       CLOUDY    80  72  76 W5        29.93F
JESUP          LGT RAIN  81  73  78 W6        29.93R
BRUNSWICK      CLOUDY    81  68  65 SW8       29.92F
SAINT SIMONS   CLOUDY    80  69  69 SW10      29.92F
6HR MIN TEMP:  78; 6HR MAX TEMP:  93; 6HR PCP:  0.01;


$$

SCZ027-028-034-036>038-045-046-048>050-GAZ119-141-200100-
...LAKE AND SUPPLEMENTAL COASTAL OBSERVATIONS...

STATION/POSITION TIME  TEMP    WIND        PRES    WAVE   SWELL
                       AIR SEA DIR/SP/G            HT/PER HT/PER/DIR
                 (UTC) (F)     (DEG/KT/KT) (MB)    (FT/S) (FT/S/D)
UPR LAKE MARION  NOT AVBL
WINYAH BAY       2300   80     260/  4     1010.0S
LAKE MURRAY      2300   81      10/  2/  6 1010.5R
ACE BASIN NERRS  2300   82     260/  3     1012.0S
FORT PULASKI     0000   82     240/  5/  8 1012.2F
SAPELO ISLAND    2300   84     230/ 11     1014.0S

$$

ANZ835-935-AMZ111-154-330-350-352-354-374-450-454-472-200100-
...C-MAN AND BUOY OBSERVATIONS...

STATION/POSITION TIME  TEMP    WIND        PRES    WAVE   SWELL
                       AIR SEA DIR/SP/G            HT/PER HT/PER/DIR
                 (UTC) (F)     (DEG/KT/KT) (MB)    (FT/S) (FT/S/D)
FOLLY BEACH CMAN 2300   82     250/ 11/ 14 1011.9R
BUOY 41004       0000   84 83  230/ 17/ 19 1010.7R   5/ 6   2/ 8
BUOY 41008       0000   84 85  240/ 16/ 19 1012.7F   2/ 3
5E ST. MARYS GA  0000      81                N/A     2/ 3
FRYING PAN BUOY  NOT AVBL
BUOY 41025       0000   80     220/  8/ 10 1009.6R   3/ 7   3/210/ 7
CAPE LOOKOUT NC  2300   82     230/  8/ 12 1009.5F
BUOY 41002       NOT AVBL
BUOY 41010       0000   85 86  240/  6/  8 1015.9R   3/ 5   2/290/ 5
BUOY 41012       NOT AVBL
ST AUGUSTINE FL  0000   89     230/  4/  5 1014.9S
CAPERS NEARSHORE 2300   83     250/ 19/ 21   N/A
FRIPP NEARSHORE  NOT AVBL


$$



USA.gov is the U.S. government's official web portal to all federal, state and local government web resources and services.